This demonstration page uses our WeatherBlox Daily Observations layout. Learn more.

Left ArrowRight Arrow

39.51506, -84.39828

Hourly Observations for February 15, 2021

Temp ( °F °C ) Dew Point ( °F °C ) Humidity (%) Winds ( mph kmh ) Pressure ( in mb ) Visibility ( mi km ) Precip ( " mm )
12:15 am 00:15 Cloudy 20 -6.8 12 -11.1 72 72 N 12 19 30.33 1027 10 16 0.00 0.00
12:35 am 00:35 Cloudy 20 -6.9 12 -11.2 72 72 N 10 17 30.33 1027 10 16 0.00 0.00
12:55 am 00:55 Cloudy 19 -7 12 -10.9 74 74 N 10 17 30.35 1028 10 16 0.00 0.00
1:15 am 01:15 Cloudy 19 -7.1 12 -11 74 74 N 12 19 30.35 1028 10 16 0.00 0.00
1:35 am 01:35 Cloudy 19 -7.1 12 -10.9 75 75 N 13 20 30.34 1027 10 16 0.00 0.00
1:55 am 01:55 Cloudy 19 -7.2 13 -10.8 76 76 N 10 17 30.35 1028 10 16 0.00 0.00
2:15 am 02:15 Cloudy 19 -7.2 13 -10.8 76 76 N 10 17 30.34 1027 10 16 0.00 0.00
2:35 am 02:35 Cloudy 19 -7.4 13 -10.7 78 78 N 10 17 30.34 1027 10 16 0.00 0.00
2:55 am 02:55 Cloudy 18 -7.6 12 -10.9 77 77 N 9 15 30.34 1027 10 16 0.00 0.00
3:15 am 03:15 Cloudy 18 -7.6 12 -11 77 77 N 8 13 30.34 1027 10 16 0.00 0.00
3:35 am 03:35 Cloudy with Light Snow 18 -7.8 12 -11 78 78 N 12 19 30.33 1027 7 11 0.00 0.00
3:55 am 03:55 Cloudy with Light Snow 17 -8.2 13 -10.5 84 84 N 10 17 30.33 1027 2 3 0.00 0.00
4:15 am 04:15 Cloudy with Light Snow 17 -8.4 14 -10.2 87 87 N 9 15 30.32 1027 3 4 0.00 0.00
4:35 am 04:35 Cloudy with Light Snow 17 -8.5 14 -10.2 88 88 N 10 17 30.31 1026 3 4 0.00 0.00
4:55 am 04:55 Cloudy with Light Snow 17 -8.6 13 -10.3 88 88 N 12 19 30.31 1026 3 5 0.00 0.00
5:15 am 05:15 Cloudy with Light Snow 16 -8.7 13 -10.6 86 86 N 10 17 30.30 1026 3 4 0.00 0.00
5:35 am 05:35 Cloudy with Light Snow 16 -8.8 13 -10.6 87 87 N 9 15 30.31 1026 3 4 0.00 0.00
5:55 am 05:55 Cloudy with Light Snow 16 -8.8 13 -10.5 88 88 N 12 19 30.32 1027 4 6 0.00 0.00
6:15 am 06:15 Cloudy with Light Snow 16 -8.8 13 -10.7 86 86 NNE 10 17 30.30 1026 5 8 0.00 0.00
6:35 am 06:35 Cloudy 16 -8.7 12 -10.9 84 84 NNE 14 22 30.30 1026 10 16 0.00 0.00
6:55 am 06:55 Cloudy with Light Snow 16 -8.7 12 -10.9 84 84 N 9 15 30.30 1026 10 16 0.00 0.00
7:15 am 07:15 Cloudy with Light Snow 17 -8.6 12 -11 83 83 NNE 13 20 30.31 1026 10 16 0.00 0.00
7:35 am 07:35 Cloudy 17 -8.6 12 -11 83 83 N 10 17 30.30 1026 7 11 0.00 0.00
7:55 am 07:55 Cloudy 17 -8.6 12 -11 83 83 NNE 9 15 30.30 1026 10 16 0.00 0.00
8:15 am 08:15 Cloudy 17 -8.5 12 -11 82 82 NNE 12 19 30.31 1026 10 16 0.00 0.00
8:35 am 08:35 Cloudy 17 -8.4 12 -11 82 82 NNE 12 19 30.32 1027 10 16 0.00 0.00
8:55 am 08:55 Cloudy with Light Snow 17 -8.4 12 -11 82 82 NNE 9 15 30.33 1027 7 11 0.00 0.00
9:15 am 09:15 Cloudy with Light Snow 17 -8.4 13 -10.8 83 83 NNE 12 19 30.33 1027 2 3 0.00 0.00
9:35 am 09:35 Cloudy with Light Snow 17 -8.4 13 -10.5 85 85 NNE 10 17 30.33 1027 2 2 0.00 0.00
9:55 am 09:55 Cloudy with Light Snow 17 -8.3 13 -10.5 84 84 NNE 13 20 30.30 1026 3 4 0.00 0.00
10:15 am 10:15 Cloudy with Light Snow 17 -8.2 13 -10.4 84 84 NNE 13 20 30.26 1025 2 3 0.00 0.00
10:35 am 10:35 Cloudy with Light Snow 18 -7.7 13 -10.5 81 81 NNE 16 26 30.25 1024 4 6 0.00 0.00
10:55 am 10:55 Cloudy with Light Snow 19 -7.2 14 -10.1 80 80 NE 13 20 30.25 1024 4 6 0.00 0.00
11:15 am 11:15 Cloudy with Light Snow 19 -7.2 13 -10.5 78 78 NNE 13 20 30.26 1025 10 16 0.00 0.00
11:35 am 11:35 Cloudy 20 -6.9 13 -10.5 76 76 NNE 16 26 30.24 1024 10 16 0.00 0.00
11:55 am 11:55 Cloudy 20 -6.7 13 -10.3 76 76 NNE 13 20 30.23 1024 10 16 0.00 0.00
12:15 pm 12:15 Cloudy 20 -6.5 14 -10.1 76 76 NE 15 24 30.21 1023 10 16 0.00 0.00
12:35 pm 12:35 Cloudy 21 -6.1 15 -9.7 76 76 NNE 14 22 30.19 1022 10 16 0.00 0.00
12:55 pm 12:55 Cloudy 21 -6.1 14 -9.8 75 75 NNE 12 19 30.19 1022 10 16 0.00 0.00
1:15 pm 13:15 Cloudy 21 -6 15 -9.7 75 75 NNE 15 24 30.16 1021 10 16 0.00 0.00
1:35 pm 13:35 Cloudy 21 -6 15 -9.6 76 76 NE 14 22 30.13 1020 10 16 0.00 0.00
1:55 pm 13:55 Cloudy with Light Snow 21 -6 15 -9.6 76 76 NNE 14 22 30.11 1020 10 16 0.00 0.00
2:15 pm 14:15 Cloudy with Light Snow 21 -6.1 15 -9.4 78 78 NNE 18 30 30.08 1019 5 8 0.00 0.00
2:35 pm 14:35 Cloudy with Light Snow 21 -6.1 15 -9.2 79 79 NNE 14 22 30.08 1019 7 11 0.00 0.00
2:55 pm 14:55 Cloudy with Light Snow 21 -6.1 16 -8.9 81 81 NNE 14 22 30.07 1018 7 11 0.00 0.00
3:15 pm 15:15 Cloudy with Light Snow 21 -6.2 17 -8.6 83 83 NNE 14 22 30.05 1018 3 5 0.01 0.25
3:35 pm 15:35 Cloudy with Light Snow 21 -6.2 17 -8.6 83 83 NE 14 22 30.06 1018 3 4 0.02 0.51
3:55 pm 15:55 Cloudy with Light Snow 20 -6.4 17 -8.4 86 86 NNE 17 28 30.03 1017 1 2 0.03 0.76
4:15 pm 16:15 Cloudy with Light Snow 20 -6.6 18 -7.9 91 91 NNE 16 26 30.01 1016 1 1 0.00 0.00
4:35 pm 16:35 Cloudy with Light Snow 20 -6.6 18 -7.8 91 91 NNE 14 22 29.99 1016 1 2 0.01 0.25
4:55 pm 16:55 Cloudy with Light Snow 20 -6.6 17 -8.4 87 87 NNE 12 19 29.98 1015 3 4 0.03 0.76
5:15 pm 17:15 Cloudy with Light Snow 20 -6.8 17 -8.6 87 87 NNE 17 28 29.95 1014 3 4 0.01 0.25
5:35 pm 17:35 Cloudy with Light Snow 20 -6.9 16 -9 85 85 NE 18 30 29.94 1014 3 5 0.02 0.51
5:55 pm 17:55 Windy with Snow Likely 19 -7 15 -9.3 84 84 NE 22 35 29.91 1013 3 4 0.02 0.51
6:15 pm 18:15 Cloudy with Light Snow 19 -7.2 15 -9.2 86 86 NNE 16 26 29.90 1013 3 4 0.01 0.25
6:35 pm 18:35 Cloudy with Light Snow 19 -7.4 15 -9.4 86 86 NNE 16 26 29.91 1013 2 3 0.01 0.25
6:55 pm 18:55 Cloudy with Light Snow 18 -7.7 15 -9.3 88 88 NNE 18 30 29.88 1012 2 3 0.01 0.25
7:15 pm 19:15 Windy with Snow Likely 18 -7.9 15 -9.4 89 89 NE 21 33 29.85 1011 2 3 0.00 0.00
7:35 pm 19:35 Cloudy with Light Snow 18 -7.9 15 -9.3 90 90 NE 17 28 29.83 1010 3 4 0.00 0.00
7:55 pm 19:55 Cloudy with Light Snow 18 -7.9 15 -9.3 90 90 NE 16 26 29.82 1010 2 3 0.00 0.00
8:15 pm 20:15 Cloudy with Light Snow 18 -8 15 -9.4 90 90 NNE 16 26 29.80 1009 2 3 0.00 0.00
8:35 pm 20:35 Cloudy with Light Snow 18 -8 15 -9.2 91 91 NE 16 26 29.78 1008 2 3 0.00 0.00
8:55 pm 20:55 Cloudy with Light Snow 18 -7.8 16 -9 91 91 N 12 19 29.78 1008 2 3 0.01 0.25
9:15 pm 21:15 Cloudy with Light Snow 18 -7.8 16 -9 91 91 N 10 17 29.81 1009 2 2 0.02 0.51
9:35 pm 21:35 Cloudy with Heavy Snow 18 -7.8 16 -8.8 93 93 N 7 11 29.82 1010 1 1 0.05 1.27
9:55 pm 21:55 Mostly Clear with Heavy Snow 18 -7.9 16 -8.7 94 94 N 9 15 29.81 1009 1 1 0.07 1.78
10:15 pm 22:15 Partly Cloudy with Isolated Snow Showers 17 -8.2 15 -9.2 93 93 NNW 10 17 29.82 1010 1 2 0.01 0.25
10:35 pm 22:35 Cloudy with Light Snow 17 -8.4 14 -9.9 89 89 NNW 12 19 29.82 1010 2 3 0.01 0.25
10:55 pm 22:55 Cloudy with Light Snow 17 -8.5 14 -9.8 90 90 NNW 12 19 29.82 1010 1 2 0.01 0.25
11:15 pm 23:15 Cloudy with Light Snow 17 -8.5 14 -10 89 89 N 16 26 29.82 1010 2 3 0.00 0.00
11:35 pm 23:35 Cloudy with Light Snow 17 -8.5 14 -9.9 90 90 NW 8 13 29.82 1010 2 2 0.00 0.00
11:55 pm 23:55 Cloudy with Light Snow 17 -8.6 13 -10.4 87 87 N 13 20 29.80 1009 4 6 0.00 0.00

Powered by AerisWeather